Regional Weather Roundup
Issued by NWS

Home | Current Version | Previous Version | Graphics & Text | Print | Product List | Glossary On
Versions: 1 2 3 4 5 6 7 8 9 10 11 12 13 14 15 16 17 18 19 20 21 22 23 24 25 26 27 28 29 30 31 32 33 34 35 36 37 38 39 40 41 42 43 44 45 46 47 48 49 50
000
ASUS43 KDTX 250010
RWRMI
MICHIGAN HOURLY REGIONAL WEATHER ROUNDUP
NATIONAL WEATHER SERVICE DETROIT/PONTIAC MI
800 PM EDT FRI APR 24 2015

NOTE: "FAIR" INDICATES FEW OR NO CLOUDS BELOW 12,000 FEET WITH NO
SIGNIFICANT WEATHER AND/OR OBSTRUCTION TO VISIBILITY.

MIZ047>049-052>055-059>063-066>070-074>076-081>083-250100-
SOUTHEAST LOWER MICHIGAN

CITY           SKY/WX    TMP DP  RH WIND       PRES   REMARKS
ADRIAN         PTCLDY    56  21  25 CALM      29.96F
6HR MIN TEMP:  54; 6HR MAX TEMP:  59;

ALMA           PTCLDY    51  21  30 N5        29.97F
ANN ARBOR      CLEAR     54  16  22 NW5       29.97S
BAD AXE        CLEAR     36  25  65 E7        30.03S WCI  30
CARO           CLEAR     49  21  33 CALM      29.99R
DETROIT CITY   CLEAR     48  19  31 SE7       29.99S
6HR MIN TEMP:  48; 6HR MAX TEMP:  57;

DETROIT        PTCLDY    55  16  21 NW6       29.98F
6HR MIN TEMP:  54; 6HR MAX TEMP:  60;

FLINT          PTCLDY    51  21  30 W3        29.99S
6HR MIN TEMP:  50; 6HR MAX TEMP:  57;

GROSSE ILE     CLEAR     46  36  66 E8        29.98R
HILLSDALE      MOCLDY    55  21  26 CALM      29.95S
6HR MIN TEMP:  53; 6HR MAX TEMP:  58;

HOWELL         PTCLDY    51  19  28 NE5       29.97F
6HR MIN TEMP:  51; 6HR MAX TEMP:  55;


CITY           SKY/WX    TMP DP  RH WIND       PRES   REMARKS
JACKSON        PTCLDY    55  18  23 CALM      29.96S
6HR MIN TEMP:  53; 6HR MAX TEMP:  58;

LAMBERTVILLE   CLEAR     55  23  28 E5        29.97S
LANSING        PTCLDY    51  21  30 N6        29.97F
6HR MIN TEMP:  51; 6HR MAX TEMP:  57;

LAPEER         FAIR      48  19  31 CALM      29.99S
MASON          PTCLDY    52  21  29 NE3       29.96F
MONROE         CLEAR     48  36  61 E6        29.97S
MT. CLEMENS    PTCLDY    46  30  53 E10       29.98R
6HR MIN TEMP:  46; 6HR MAX TEMP:  51;

PONTIAC        MOCLDY    50  19  29 NW8       29.98S
6HR MIN TEMP:  49; 6HR MAX TEMP:  55;

PORT HOPE        N/A     36  23  59 E10       30.03S WCI  28
6HR MIN TEMP:  36; 6HR MAX TEMP:  40;

PORT HURON     CLEAR     39  27  60 NE9       30.02S WCI  33
TRI CITIES     CLEAR     51  24  34 NE5       29.99S
6HR MIN TEMP:  49; 6HR MAX TEMP:  56;

TROY           CLEAR     53  19  26 E5        30.01R
SAGINAW HB     CLEAR     52  18  25 CALM      29.98S
$$
MIZ043>046-050>051-056>058-064>065-071>073-077>080-250100-
SOUTHWEST LOWER MICHIGAN

CITY           SKY/WX    TMP DP  RH WIND       PRES   REMARKS
BATTLE CREEK   CLOUDY    57  23  26 S3        29.95F
6HR MIN TEMP:  54; 6HR MAX TEMP:  59;

BENTON HARBOR  CLOUDY    45  30  55 N7        29.97S
6HR MIN TEMP:  44; 6HR MAX TEMP:  55; 6HR PCP:  0.01;

BIG RAPIDS     MOCLDY    52  18  26 N5        29.95F
6HR MIN TEMP:  51; 6HR MAX TEMP:  56;

COLDWATER      CLOUDY    54  29  38 CALM      29.94F
6HR MIN TEMP:  53; 6HR MAX TEMP:  58;

FREMONT        FAIR      50  14  23 W5        29.99R
HOLLAND        CLOUDY    54  18  24 NW5       29.98S
6HR MIN TEMP:  54; 6HR MAX TEMP:  58;

GRAND RAPIDS   CLOUDY    53  23  31 NW10      29.97S
6HR MIN TEMP:  53; 6HR MAX TEMP:  58;

IONIA          FAIR      53  20  26 CALM      29.95F
KALAMAZOO      CLOUDY    58  20  22 CALM      29.94F
6HR MIN TEMP:  55; 6HR MAX TEMP:  61;

LUDINGTON      CLOUDY    44  20  38 NE3       30.00F
6HR MIN TEMP:  44; 6HR MAX TEMP:  53;

MARSHALL       CLOUDY    55  22  28 CALM      29.94F
MOUNT PLEASANT CLEAR     51  19  27 NE6       29.97S
6HR MIN TEMP:  50; 6HR MAX TEMP:  56;

MUSKEGON       CLOUDY    50  18  28 N6        29.99S
6HR MIN TEMP:  50; 6HR MAX TEMP:  55;

SOUTH HAVEN    LGT RAIN  50  19  30 NW5       29.99R
$$
MIZ016>042-250100-
NORTHERN LOWER MICHIGAN

CITY           SKY/WX    TMP DP  RH WIND       PRES   REMARKS
ALPENA         CLEAR     41  15  35 N12       30.03R
6HR MIN TEMP:  41; 6HR MAX TEMP:  49;

BEAVER ISLAND  CLEAR     37  17  44 CALM      30.04F
6HR MIN TEMP:  37; 6HR MAX TEMP:  45;

BELLAIRE       PTCLDY    43  14  30 N3        30.03S
6HR MIN TEMP:  42; 6HR MAX TEMP:  46;

CADILLAC       MOCLDY    43  19  38 N6        29.98S
CHARLEVOIX     PTCLDY    37  19  48 CALM      30.06F
6HR MIN TEMP:  37; 6HR MAX TEMP:  42;

FRANKFORT      MOCLDY    44  13  28 NE5       30.01F
GAYLORD        CLEAR     40  12  32 CALM      30.00F
6HR MIN TEMP:  40; 6HR MAX TEMP:  44;

GRAYLING       PTCLDY    44  15  31 NW5       30.01S
HARBOR SPRINGS CLEAR     33  24  68 CALM      30.03F
HOUGHTON LAKE  PTCLDY    45  10  24 N6        29.99F
6HR MIN TEMP:  45; 6HR MAX TEMP:  50;

MANISTEE       CLOUDY    45  25  45 N3        30.01F
OSCODA         CLEAR     36  24  60 E9        30.03F WCI  29
PELLSTON       CLEAR     40  15  36 NW8       30.05R WCI  34
6HR MIN TEMP:  40; 6HR MAX TEMP:  46;

ROGERS CITY    CLEAR     39  18  43 NW6       30.05R WCI  35
TRAVERSE CITY  CLOUDY    40  19  43 NE7       30.02S
6HR MIN TEMP:  40; 6HR MAX TEMP:  45;

$$
MIZ007>008-015-250100-
EASTERN UPPER MICHIGAN

CITY           SKY/WX    TMP DP  RH WIND       PRES   REMARKS
KINROSS        CLEAR     32  18  55 NW12      30.03S WCI  23
6HR MIN TEMP:  32; 6HR MAX TEMP:  37;

MACKINAC ISLAN CLEAR     37  24  60 W5        30.04R WCI  33
6HR MIN TEMP:  37; 6HR MAX TEMP:  44;

NEWBERRY       CLEAR     35  14  41 N5        30.03R WCI  31
S. S. MARIE    CLEAR     33  18  53 NW9       30.03S WCI  25
6HR MIN TEMP:  33; 6HR MAX TEMP:  37;

MUNISING         N/A     37  22  54 NE7       30.04R WCI  32
6HR MIN TEMP:  36; 6HR MAX TEMP:  37;

$$
MIZ004>006-011>014-085-250100-
CENTRAL UPPER MICHIGAN

CITY           SKY/WX    TMP DP  RH WIND       PRES   REMARKS
MANISTIQUE     CLEAR     34  29  83 S3        30.03S
ESCANABA       CLOUDY    37  28  70 SE6       30.02R WCI  33
6HR MIN TEMP:  37; 6HR MAX TEMP:  41;

MENOMINEE      CLOUDY    39  21  48 S9        30.00S WCI  33
6HR MIN TEMP:  39; 6HR MAX TEMP:  45;

SAWYER-GWINN   MOCLDY    36  18  48 NE10      30.00S WCI  28
$$
MIZ001>003-009>011-084-250100-
WESTERN UPPER MICHIGAN

CITY           SKY/WX    TMP DP  RH WIND       PRES   REMARKS
IRON MOUNTAIN  CLOUDY    42  25  50 SE10      29.96R
6HR MIN TEMP:  42; 6HR MAX TEMP:  53;

HOUGHTON       CLEAR     33  24  69 SE12      30.01R WCI  24
6HR MIN TEMP:  33; 6HR MAX TEMP:  43;

COPPER HARBOR    N/A     36  17  46 SE5       30.03S WCI  32
6HR MIN TEMP:  36; 6HR MAX TEMP:  40;

IRONWOOD       CLOUDY    41  32  70 E3        29.92F
6HR MIN TEMP:  41; 6HR MAX TEMP:  46;

$$

ABBREVIATIONS USED IN REMARKS
   TC - TEMPERATURE IN CELSIUS
  WCI - WIND CHILL INDEX
   HX - HEAT INDEX
  VSB - VISIBILITY



USA.gov is the U.S. government's official web portal to all federal, state and local government web resources and services.